[Iaude] MPEC D123: 2024 DT1 [a=1.45,e=0.34,i=20.3,H=22.1]
    mpec at cfa.harvard.edu 
    mpec at cfa.harvard.edu
       
    Sat Feb 24 10:42:19 EST 2024
    
    
  
M.P.E.C. 2024-D123                            Issued 2024 February 24, 15:40 UT
     The Minor Planet Electronic Circulars contain information on unusual
         minor planets, routine data on comets and natural satellites,
         and occasional editorial announcements.  They are published
    on behalf of Division F of the International Astronomical Union by the
          Minor Planet Center, Smithsonian Astrophysical Observatory,
                          Cambridge, MA 02138, U.S.A.
			  
             Prepared using the Tamkin Foundation Computer Network
                              MPC at CFA.HARVARD.EDU
            URL https://www.minorplanetcenter.net/    ISSN 1523-6714
                                    2024 DT1                                    
Observations:
     K24D01T*1C2024 02 19.46994713 09 23.062+15 27 05.04         20.36GVED123G96
     K24D01T 1C2024 02 19.47507813 09 22.964+15 27 32.87         20.14GVED123G96
     K24D01T 1C2024 02 19.48020713 09 22.900+15 28 00.66         20.40GVED123G96
     K24D01T 1C2024 02 19.48533913 09 22.766+15 28 28.81         20.14GVED123G96
     K24D01T  C2024 02 19.52554513 09 21.933+15 32 06.30         20.3 GVED123H01
     K24D01T  C2024 02 19.52870313 09 21.881+15 32 23.43         20.3 GVED123H01
     K24D01T  C2024 02 19.53445513 09 21.786+15 32 54.56         20.4 GVED123H01
     K24D01T KC2024 02 20.02288813 09 21.13 +16 16 55.7          20.5 GVED123L01
     K24D01T KC2024 02 20.02495613 09 21.08 +16 17 06.7          20.4 GVED123L01
     K24D01T KC2024 02 20.02702813 09 21.04 +16 17 17.9          20.3 GVED123L01
     K24D01T KC2024 02 20.02913213 09 21.01 +16 17 29.1          20.4 GVED123L01
     K24D01T KC2024 02 20.03165413 09 20.98 +16 17 42.9          20.4 GVED123L01
     K24D01T KC2024 02 20.40791413 09 16.71 +16 51 18.9          20.8 GVED123H21
     K24D01T KC2024 02 20.41840113 09 16.49 +16 52 14.6          20.6 GVED123H21
     K24D01T KC2024 02 20.42028513 09 16.42 +16 52 24.9          20.6 GVED123H21
     K24D01T KB2024 02 21.21582 13 09 07.63 +18 02 05.5                qED123Y66
     K24D01T KB2024 02 21.21729 13 09 07.61 +18 02 13.1                qED123Y66
     K24D01T KB2024 02 21.21792 13 09 07.58 +18 02 17.7          20.8 VqED123Y66
     K24D01T KB2024 02 21.21856 13 09 07.54 +18 02 20.4                qED123Y66
     K24D01T KC2024 02 21.25483013 09 09.15 +18 05 19.1          20.8 GVED123H21
     K24D01T KC2024 02 21.25868613 09 09.04 +18 05 38.9          20.3 GVED123H21
     K24D01T KC2024 02 21.26466413 09 08.90 +18 06 11.1          20.3 GVED123H21
     K24D01T KC2024 02 21.26665713 09 08.85 +18 06 20.8          20.3 GVED123H21
Observer details:
G96 Mt. Lemmon Survey.  Observers T. Beuden, G. J. Leonard.  Measurers T.
    Beuden, V. F. Carvajal, D. Fay, J. B. Fazekas, D. C. Fuls, A. R. Gibbs, A.
    D. Grauer, H. Groeller, J. K. Hogan, R. A. Kowalski, S. M. Larson, G. J.
    Leonard, D. Rankin, R. L. Seaman, F. C. Shelly, K. W. Wierzchos.  1.5-m
    reflector + 10K CCD.
H01 Magdalena Ridge Observatory, Socorro.  Observers W. H. Ryan, E. V. Ryan.
    Measurer W. H. Ryan.  2.4-m f/8.9 Ritchey-Chretien + CCD.
H21 Astronomical Research Observatory, Westfield.  Observer R. Holmes.
    Measurers T. Linder, R. Holmes, L. Horn.  0.76-m f/3.0 astrograph + CCD.
L01 Visnjan Observatory, Tican.  Observer K. Korlevic.  1.0-m f/2.9 reflector
    + CCD.
Y66 Two-Meter Twin Telescope, TTT2, Teide.  Observer M. Serra.  Measurer M.
    Hierro.  0.80-m f/4.38 reflector + CMO.
Orbital elements:
2024 DT1                                                 Earth MOID = 0.0896 AU
Epoch 2024 Mar. 31.0 TT = JDT 2460400.5                 Bell                    
M  60.68597              (2000.0)            P               Q                  
n   0.56620524     Peri.  300.45711     +0.03410074     -0.98030724             
a   1.4470608      Node   145.86810     +0.99386704     +0.01277786             
e   0.3368430      Incl.   20.28326     +0.10519247     +0.19706455             
P   1.74           H   22.18          G   0.15           U   9                  
Residuals in seconds of arc
240219 G96  0.1-  0.2+    240220 L01  0.1+  0.1-    240221 Y66  0.7+  1.2-
240219 G96  0.1-  0.0     240220 L01  0.1+  0.1-    240221 Y66  0.5+  0.1+
240219 G96  0.4+  0.2-    240220 L01  0.2+  0.2-    240221 Y66  0.2+  0.5-
240219 G96  0.1-  0.0     240220 L01  0.4+  0.1-    240221 H21  0.2+  0.1+
240219 H01  0.0   0.1-    240220 H21  0.1+  0.1-    240221 H21  0.1-  0.2-
240219 H01  0.0   0.1-    240220 H21  0.2+  0.1-    240221 H21 (0.1-  0.8+)
240219 H01  0.0   0.2-    240220 H21  0.2-  0.3+    240221 H21  0.2-  0.1+
240220 L01  0.2+  0.1+    240221 Y66  0.4+  1.2-
Ephemeris:
2024 DT1                 a,e,i = 1.45, 0.34, 20                  q = 0.9596
Date    TT    R. A. (2000) Decl.     Delta      r    Elong.  Phase     V
2024 01 25    12 41 44.2 -29 16 54   0.2015  1.0437   101.6    67.5    21.2
...
2024 02 09    13 05 20.0 -02 27 24   0.1956  1.1060   123.3    48.2    20.7
...
2024 02 17    13 09 18.9 +11 34 08   0.2108  1.1431   133.4    38.9    20.6
...
2024 02 23    13 08 37.4 +20 31 39   0.2307  1.1722   138.6    33.9    20.8
2024 02 24    13 08 13.7 +21 51 25   0.2346  1.1771   139.2    33.3    20.8
2024 02 25    13 07 45.5 +23 08 15   0.2388  1.1821   139.8    32.7    20.8
...
2024 03 02    13 03 30.0 +29 48 15   0.2669  1.2120   141.8    30.4    21.0
...
2024 03 10    12 54 49.2 +36 08 23   0.3123  1.2526   141.5    29.6    21.4
...
2024 03 25    12 35 44.4 +41 45 48   0.4161  1.3293   136.2    31.3    22.2
M. P. C. Staff               (C) Copyright 2024 MPC           M.P.E.C. 2024-D123
    
    
More information about the Iaude
mailing list